Weather in Karamay

China     45°33′39″N   84°53′31″E
temp.,
°C
wind,
m/s
gust,
m/s
humid.,
%
clouds,
%
prec.,
mm/h
press.,
hPa
HPBL,
m
31 july, sat
sat3123:00+25wnw71032100 0.0 1010465
02:00+25wnw71032100 0.0 1010628
05:00+24w6934100 0.0 1010363
08:00+23nw48348 0.0 1011186
11:00+28ene342482 0.0 10112006
14:00+30ene141887 0.0 10103075
17:00+33wnw351435 0.0 10083720
20:00+33nw561219 0.0 10073537
1 august, sun
sun123:00+30nw69140 0.0 1009147
02:00+27nnw710200 0.0 1009164
05:00+26nnw46180 0.0 100867
08:00+24ne33180 0.0 100940
11:00+29ene33160 0.0 1009747
14:00+32ese23110 0.0 10071953
17:00+34se3390 0.0 10042201
20:00+35sse4490 0.0 10031892
2 august, mon
mon223:00+31sse33110 0.0 100413
02:00+28wsw221420 0.0 100311
05:00+26wsw22150 0.0 100312
08:00+26n23140 0.0 100415
11:00+31ene44110 0.0 1005732
14:00+35e22948 0.0 10041735
17:00+37sse2289 0.0 10022430
20:00+37sse228100 0.0 10011596
3 august, tue
tue323:00+33se2210100 0.0 100211
02:00+31sw1113100 0.0 100211
05:00+30sw3314100 0.0 100315
08:00+29nne4614100 0.0 100469
11:00+33e3312100 0.0 1004541
14:00+36sse2210100 0.0 10041391
17:00+37wsw339100 0.0 10034231
20:00+37n341089 0.0 10033904
4 august, wed
wed423:00+33nw231555 0.0 100313
02:00+30n452427 0.0 100454
05:00+27ese11267 0.0 100411
08:00+28e3327100 0.0 100538
11:00+31ene432354 0.0 1006746
14:00+36nnw791487 0.0 10043920
17:00+36wsw561578 0.0 10023186
20:00+37nw991158 0.0 10012502